Date,TemperatureHighF,TemperatureAvgF,TemperatureLowF,DewpointHighF,DewpointAvgF,DewpointLowF,HumidityHigh,HumidityAvg,HumidityLow,PressureMaxIn,PressureMinIn,WindSpeedMaxMPH,WindSpeedAvgMPH,GustSpeedMaxMPH,PrecipitationSumIn
2013-4-1,60,50,44,49,44,41,94,81,54,30.11,29.99,10,0,10,0.08
2013-4-2,66,52,39,48,43,37,93,74,46,30.12,30.03,10,0,12,0.00
2013-4-3,74,56,44,53,47,41,93,75,35,30.09,29.93,9,0,10,0.00
2013-4-4,54,51,46,52,49,41,93,92,74,30.05,29.89,6,0,10,0.60
2013-4-5,60,53,48,49,47,44,94,82,59,30.09,30.03,6,0,7,0.01
2013-4-6,60,52,47,49,46,44,92,80,57,30.11,30.04,4,0,6,0.00
2013-4-7,62,53,43,49,46,40,91,78,54,30.08,29.70,13,1,14,0.05
2013-4-8,60,49,40,41,32,18,93,58,22,29.95,29.65,17,2,20,0.52
2013-4-9,70,56,41,34,22,11,51,30,10,30.05,29.93,17,1,17,0.00
2013-4-10,77,61,46,48,37,26,68,43,26,30.12,29.88,14,1,15,0.00
2013-4-11,71,59,49,50,43,31,87,58,24,29.90,29.75,12,1,16,0.00
2013-4-12,76,59,45,48,38,31,76,49,23,29.82,29.74,14,0,15,0.00
2013-4-13,73,59,46,46,40,35,73,52,27,29.80,29.71,12,0,13,0.00
2013-4-14,66,55,41,41,34,20,76,50,19,29.79,29.66,10,0,11,0.00
2013-4-15,53,46,36,41,35,23,88,66,32,29.83,29.70,13,1,17,0.00
2013-4-16,58,46,33,34,23,8,89,50,14,30.01,29.83,14,1,19,0.00
2013-4-17,64,51,36,24,16,10,62,27,12,30.19,30.10,5,1,19,0.00
2013-4-18,67,54,38,36,26,18,62,36,20,30.21,30.14,2,0,11,0.00
2013-4-19,72,58,43,43,36,32,68,48,26,30.19,30.01,3,0,13,0.00
2013-4-20,74,61,47,41,38,31,72,45,26,30.02,29.91,6,0,13,0.00
2013-4-21,77,63,47,46,40,32,72,46,20,29.97,29.88,11,0,13,0.00
2013-4-22,79,65,50,50,40,27,69,43,18,29.90,29.77,14,1,17,0.00
2013-4-23,78,66,52,37,25,12,53,23,10,29.83,29.76,12,0,14,0.00
2013-4-24,83,66,48,36,24,14,60,26,9,29.80,29.67,12,1,17,0.00
2013-4-25,73,59,43,47,39,26,84,50,27,30.00,29.76,6,0,9,0.00
2013-4-26,77,61,45,51,46,39,86,60,31,30.10,30.00,7,0,10,0.00
2013-4-27,82,67,49,51,47,41,84,53,27,30.12,29.97,7,0,11,0.00
2013-4-28,80,66,58,50,47,43,68,54,27,29.84,29.80,5,0,5,0.00
2013-4-29,81,68,54,54,46,36,78,50,21,29.80,29.67,10,0,11,0.01
2013-4-30,77,66,50,51,35,7,78,39,10,29.79,29.64,11,1,14,0.00